Theta_e
320 320 320 320 320 319 321 323 323 324 323 319 318 320 322 324 324 324 324 326 326 327 329 330 332 332 332 332 332 332 334 337 334 332 336 338 336 336 336 336 334 326 318 316 326 334 334 336 336 336 336 336 336 336 335 334 332 327 321 317 315 313 314 315 317 318 319 320 320 321 319 317 320 321 323 327 328 327 327 328 324 316 315 320 321 323 326 328 328 326 324 322 320 321 322 322 322
320 320 320 321 320 321 323 323 322 322 320 318 318 320 322 323 324 324 325 326 328 327 329 331 331 332 331 330 331 331 334 336 336 336 337 336 336 337 336 337 333 326 319 313 324 334 334 335 335 335 335 335 335 334 333 332 330 325 321 317 316 318 318 316 319 321 319 321 322 324 324 323 324 322 324 328 328 326 326 326 323 320 319 323 328 328 326 327 326 324 322 319 318 318 319 320 321
319 320 320 321 323 323 322 322 320 319 318 317 318 322 322 324 324 325 327 328 329 328 329 332 332 332 330 328 329 331 334 337 338 337 336 336 336 336 336 337 333 326 318 315 327 333 332 334 334 334 333 333 334 332 331 329 328 324 320 318 321 324 323 319 319 320 319 321 321 323 324 324 324 323 325 328 328 326 327 328 329 330 329 327 329 330 330 325 321 320 317 315 315 316 318 319 319
320 319 320 321 324 324 323 322 321 318 317 316 318 322 323 324 324 326 329 329 329 329 331 331 332 332 330 331 330 330 336 338 338 336 336 337 336 336 336 335 332 325 318 318 328 329 329 333 332 331 328 326 329 326 324 325 325 321 316 320 326 326 325 322 318 318 318 319 319 321 323 321 321 321 324 327 327 325 325 328 330 331 331 328 326 329 329 320 315 314 314 314 315 316 318 318 319
319 319 320 322 325 324 322 321 321 319 318 318 319 321 323 324 324 326 329 328 328 329 330 330 332 332 330 331 331 333 337 337 338 336 337 337 335 335 336 333 330 324 318 316 322 326 323 327 330 328 324 319 321 320 317 318 319 315 312 319 325 325 325 323 317 317 317 319 321 322 324 322 321 321 322 325 327 324 322 327 331 330 331 331 326 324 322 315 313 313 313 315 317 318 318 318 318
319 321 320 322 324 324 322 320 319 319 320 320 320 321 322 323 325 327 329 328 327 329 329 330 332 331 330 332 332 335 337 338 338 336 338 338 335 335 334 330 329 324 319 315 318 321 314 315 321 321 321 318 317 319 318 315 314 312 312 317 322 323 324 321 315 317 319 320 320 319 323 324 323 322 323 325 328 326 322 325 328 329 329 328 323 317 315 313 313 313 314 316 317 318 317 317 316
320 322 322 323 323 323 323 319 318 320 321 321 320 321 321 323 325 327 328 327 327 327 327 330 331 328 331 331 331 334 334 338 338 336 337 337 335 335 332 329 328 323 318 315 316 316 309 308 311 312 315 316 315 318 319 316 315 314 314 317 320 322 322 319 317 321 323 322 319 319 324 326 325 323 323 325 326 327 325 324 325 326 326 324 320 316 313 313 313 313 313 315 315 315 315 314 313
319 322 323 324 324 325 324 320 320 322 321 321 320 321 322 325 326 327 327 326 326 326 327 329 329 327 329 329 333 335 331 335 337 337 336 335 336 333 330 329 326 320 316 314 313 311 308 308 307 309 310 312 313 315 317 317 318 317 315 318 320 322 323 321 324 326 326 324 321 322 324 326 326 323 321 324 326 328 326 325 326 326 325 323 320 316 313 313 312 312 312 313 313 313 312 312 312
319 322 323 323 325 325 324 321 320 322 322 320 321 320 321 324 325 326 325 325 325 325 326 327 328 327 327 328 333 336 332 333 336 337 336 336 335 331 330 330 322 316 314 312 310 309 308 308 307 308 308 311 313 314 319 318 317 316 316 320 321 323 324 323 325 326 326 327 324 322 325 325 325 323 322 324 326 327 326 324 322 321 321 319 316 313 311 312 312 312 312 312 312 312 312 312 312
321 322 323 324 325 323 323 322 320 321 322 320 321 320 321 323 325 326 325 325 324 324 327 327 327 325 325 327 333 337 334 333 336 337 336 336 333 330 331 329 322 315 312 311 309 308 308 308 307 308 310 312 313 317 323 320 315 313 317 323 322 322 323 322 322 322 324 325 323 321 322 321 321 321 321 322 323 326 326 322 318 317 317 315 312 311 311 312 311 311 311 312 312 312 313 313 313
322 323 323 324 324 322 323 322 319 321 321 320 321 320 320 323 325 326 326 325 323 325 328 326 326 324 324 326 334 337 334 333 337 337 336 335 334 332 331 327 322 317 312 311 309 309 308 308 308 309 312 311 314 321 325 321 313 312 320 326 323 320 321 321 320 322 322 321 321 321 320 321 322 322 321 320 321 323 324 321 317 315 314 312 311 311 311 311 312 312 312 313 313 314 314 314 314
323 324 324 324 324 324 325 323 321 320 321 321 321 320 320 322 325 325 325 324 323 324 326 325 325 325 323 326 336 335 331 334 337 336 336 335 334 334 332 326 321 318 313 310 310 309 308 308 308 310 312 312 318 322 322 319 311 311 318 322 321 320 319 318 317 319 319 319 321 321 320 320 319 319 318 317 317 320 321 319 315 313 312 312 312 312 312 312 312 312 313 313 314 314 315 315 316
323 324 325 325 325 326 325 324 323 320 320 321 322 321 320 322 325 325 324 323 323 322 324 325 324 323 323 329 336 335 331 334 337 336 336 334 333 334 333 328 321 317 313 311 310 309 308 310 311 311 310 315 322 321 320 317 311 311 313 313 315 316 316 315 315 317 318 318 319 318 316 316 315 315 314 315 315 316 317 316 314 313 314 313 313 313 313 314 314 315 315 315 316 316 317 318 318
322 324 324 325 326 326 324 325 324 320 319 321 322 321 321 323 325 324 324 323 322 324 325 324 324 324 324 327 333 336 334 334 336 336 336 335 334 333 333 331 325 318 313 312 311 309 309 311 317 317 311 319 326 321 319 316 311 310 310 310 312 314 315 314 315 318 318 318 318 317 317 316 316 316 315 316 316 316 316 316 316 315 315 316 316 316 316 316 317 317 318 318 318 319 319 319 320
322 323 324 325 325 325 325 325 325 321 319 321 321 321 322 323 323 323 323 323 323 323 324 322 323 324 323 325 331 336 333 332 336 336 335 334 333 333 332 331 328 321 314 313 311 310 309 309 321 322 311 319 328 325 321 316 311 310 309 309 311 314 315 315 317 319 319 318 318 319 318 318 318 318 317 317 317 317 317 318 318 318 318 318 318 318 318 318 318 319 319 319 320 320 321 321 321
321 322 323 324 324 324 325 325 325 322 320 320 320 321 322 322 322 322 323 322 323 322 323 323 322 324 325 329 336 337 331 330 335 336 335 334 333 332 330 330 329 323 315 314 313 311 310 308 319 323 317 321 327 329 327 317 311 309 308 309 311 314 314 315 318 318 319 319 319 319 318 318 318 318 318 318 318 318 319 319 319 319 319 319 319 319 320 320 319 320 320 320 321 321 321 321 322
320 322 323 323 324 325 325 325 325 322 320 319 319 321 323 322 321 321 321 321 323 321 323 326 323 323 326 325 331 337 332 328 334 335 335 334 333 332 330 330 330 326 317 315 314 311 312 309 312 320 325 327 325 330 330 319 310 308 308 309 311 314 314 315 317 318 318 318 318 319 319 318 318 318 318 319 319 319 319 319 319 319 319 320 320 320 320 320 320 320 320 321 321 321 321 321 322
321 323 324 324 325 325 325 325 324 322 319 318 319 321 323 323 321 320 321 320 322 322 322 325 322 322 323 319 323 332 330 329 333 335 335 334 334 333 331 330 331 328 319 315 315 312 313 311 309 313 321 326 326 329 330 321 309 309 309 309 313 314 314 315 317 318 318 318 318 319 320 320 319 319 319 319 319 319 319 319 319 320 320 320 320 320 320 321 321 321 321 321 321 321 321 321 322
323 324 325 326 326 324 323 323 322 321 319 318 318 319 321 323 322 321 321 322 322 322 322 324 324 323 323 318 321 328 329 332 334 334 335 334 334 334 332 330 329 329 322 316 316 314 314 312 311 310 312 319 324 326 329 323 307 311 313 309 314 314 314 315 317 318 317 318 318 319 323 322 320 320 318 319 319 319 319 319 320 320 320 320 320 321 321 321 322 322 322 322 322 322 322 322 323
324 325 326 328 327 323 321 321 320 319 318 319 318 316 319 321 321 321 321 323 322 322 323 323 324 325 325 320 320 326 327 332 334 335 335 334 334 334 333 330 328 330 326 318 317 316 315 314 312 312 311 312 317 318 324 322 310 316 320 311 313 315 314 315 317 318 318 319 317 322 325 322 320 320 318 319 319 319 319 319 320 320 320 320 321 321 322 322 322 322 322 322 323 322 323 323 323
323 324 326 327 327 324 321 320 318 317 317 318 318 316 318 319 319 320 321 322 322 323 323 323 323 323 327 323 320 324 324 328 333 335 335 334 334 334 334 331 328 329 328 321 319 319 317 316 314 313 312 310 313 313 317 317 311 318 320 312 313 315 315 315 317 318 318 319 318 324 326 321 320 320 318 319 319 319 319 319 320 320 320 321 322 322 322 322 322 322 322 322 323 322 323 323 324
322 322 322 323 324 324 320 318 316 315 316 317 317 317 317 317 317 319 320 321 321 322 321 322 322 321 326 324 320 322 322 324 328 332 334 334 334 333 334 333 330 329 328 324 321 320 318 317 316 314 313 311 312 312 312 313 310 314 315 311 313 315 315 315 317 318 318 319 317 323 325 319 320 320 318 319 319 319 319 319 320 320 321 321 322 322 322 323 322 323 323 323 323 323 324 323 324
323 322 320 320 322 322 317 316 315 314 316 317 318 317 316 317 317 318 319 320 320 320 320 320 320 321 326 324 319 320 321 322 323 325 330 333 333 333 333 333 332 330 329 327 323 321 320 319 318 316 314 313 313 312 312 312 311 311 311 310 312 314 315 315 316 317 317 318 317 320 320 318 319 318 318 319 319 319 319 319 320 320 321 322 322 323 323 323 323 323 323 323 323 323 323 323 324
324 324 321 319 320 319 316 315 314 314 315 316 316 315 316 317 318 318 317 319 319 319 319 318 318 320 324 322 318 319 320 320 320 320 325 331 333 332 333 334 334 332 331 329 326 323 322 321 320 318 316 315 315 314 313 313 312 312 312 312 312 313 315 315 316 316 317 317 318 318 318 318 319 318 319 319 318 319 319 319 320 320 321 322 322 323 323 323 323 323 323 323 324 324 324 324 324
323 326 321 317 318 317 316 315 314 315 315 315 314 315 317 317 316 316 317 318 319 318 317 317 317 318 319 319 317 318 319 319 319 321 324 328 332 333 334 334 334 334 333 330 326 325 324 322 321 320 318 316 316 316 316 315 314 313 313 313 313 313 314 315 316 316 317 317 317 318 318 318 318 318 319 318 319 319 319 320 320 321 321 321 322 322 322 322 323 323 323 323 324 324 324 324 324
325 326 321 317 318 317 316 316 316 316 315 314 314 316 317 316 315 316 317 318 318 318 317 316 317 317 318 319 318 317 318 319 319 321 322 324 330 334 333 334 334 334 333 331 328 326 325 323 322 321 320 318 317 316 317 317 316 315 314 314 314 314 314 315 316 316 316 316 317 317 317 318 318 318 318 318 319 319 320 320 320 321 321 321 321 322 322 322 322 323 324 324 324 324 325 325 324
326 324 320 318 319 317 317 317 317 317 317 316 315 317 317 314 315 317 318 318 317 317 317 317 317 319 319 320 319 317 318 318 319 322 322 324 328 331 330 330 331 332 333 331 329 327 326 325 324 323 321 320 319 317 317 317 318 317 316 316 315 315 315 315 316 316 316 317 317 317 317 318 318 318 318 319 320 320 320 320 320 321 321 321 321 321 321 322 322 323 324 324 324 324 324 324 324
325 322 319 319 319 318 318 318 318 318 318 317 316 317 318 315 314 317 318 317 316 317 319 318 318 320 321 322 320 317 318 321 322 323 322 321 322 323 324 323 324 328 330 330 327 325 325 325 325 324 323 322 321 319 318 317 317 318 318 318 317 316 316 316 317 317 317 317 317 317 318 318 318 318 319 320 321 321 321 321 321 321 321 321 322 322 322 322 322 323 324 324 324 324 324 324 324
325 323 322 322 320 320 319 318 319 319 318 317 317 318 319 317 315 317 318 317 316 317 320 320 320 321 322 324 323 318 317 321 322 320 318 319 318 318 319 318 319 323 325 327 327 324 323 325 325 324 324 323 322 321 320 318 318 318 318 318 318 318 317 317 318 318 318 318 318 318 319 319 320 320 320 321 321 321 321 322 322 321 321 321 323 323 322 322 323 324 325 324 324 324 323 323 323
324 324 325 326 324 324 323 321 320 320 319 317 318 320 322 321 318 318 318 316 316 317 319 320 321 321 323 326 326 321 318 319 319 317 317 318 318 318 317 317 318 319 320 323 325 323 323 325 325 324 324 324 323 323 321 320 319 318 318 318 319 319 318 318 318 319 319 319 319 319 319 320 320 321 321 321 322 322 322 322 321 321 321 321 324 324 323 323 324 324 324 324 324 323 323 323 323
325 325 325 327 327 328 327 325 323 320 319 318 319 320 323 324 319 318 317 316 316 317 318 319 320 321 323 325 324 323 320 318 317 317 317 317 317 317 317 317 318 318 319 320 321 322 324 324 323 322 323 324 324 324 323 322 321 319 318 318 319 319 319 319 319 319 319 319 319 319 320 320 321 321 321 321 321 321 321 322 322 322 322 323 325 325 325 325 324 324 324 323 323 323 323 323 323
326 325 326 328 329 328 326 326 325 322 319 318 320 321 322 323 322 319 316 316 316 317 318 317 319 321 322 321 320 323 324 320 316 316 317 316 317 317 317 317 318 319 319 318 319 321 324 323 321 319 320 323 324 324 324 324 323 322 321 319 318 319 319 319 320 320 320 320 320 320 320 321 321 321 321 321 321 322 323 324 324 324 325 325 325 325 325 325 324 324 324 323 323 323 323 323 323
326 325 328 330 329 328 326 324 325 325 321 319 321 324 325 323 322 320 317 317 317 318 318 317 318 320 321 322 320 320 324 323 317 315 316 315 316 317 316 317 317 318 318 318 318 319 322 323 321 318 318 320 322 323 323 324 325 324 324 322 320 319 319 319 319 319 320 320 320 320 320 320 321 321 321 322 323 324 324 325 325 326 325 325 325 325 324 323 323 324 324 323 323 323 323 323 323
325 324 327 330 329 328 327 323 322 324 322 320 320 323 326 324 320 317 315 317 318 318 318 317 317 318 319 321 321 320 322 324 318 314 316 315 315 316 316 317 317 317 318 318 319 318 320 321 320 317 317 318 320 321 322 323 325 325 325 325 324 323 321 320 319 319 319 319 320 320 320 320 321 322 322 323 325 326 326 326 326 327 326 326 326 325 324 324 324 323 323 324 324 323 323 322 323
326 325 327 328 326 326 326 324 322 321 321 322 323 321 323 324 322 319 316 315 317 317 318 318 317 317 317 318 320 320 320 321 317 315 316 315 315 315 316 316 316 317 317 317 318 318 318 319 319 317 317 318 319 320 321 322 323 324 325 325 326 325 324 323 322 321 320 320 320 319 320 320 321 322 324 325 326 327 328 327 327 327 327 327 326 324 324 324 324 323 323 323 323 323 323 322 323
327 327 327 328 326 324 326 323 320 321 321 322 323 322 322 323 323 324 322 318 317 318 319 319 318 317 317 317 318 318 318 317 315 315 316 315 315 315 315 315 315 316 317 317 317 318 318 318 318 317 317 317 318 319 320 322 322 323 324 324 325 325 324 324 324 323 323 322 321 320 320 320 320 322 323 325 327 328 329 328 328 328 328 328 327 325 324 324 324 324 324 324 324 323 322 322 322
328 328 327 328 327 326 327 323 317 318 320 321 322 323 323 323 322 323 325 322 318 319 320 320 319 318 317 317 317 317 316 316 315 315 315 315 315 315 315 314 315 315 316 317 317 317 317 317 317 316 316 316 317 318 319 319 320 321 322 323 323 324 324 323 323 323 323 323 322 321 321 321 321 322 322 324 325 327 328 328 329 328 328 328 327 326 325 324 324 324 324 324 324 324 323 323 323
327 328 326 327 327 327 327 321 316 315 318 321 322 321 321 322 321 321 322 321 320 320 320 320 321 320 319 318 318 317 316 315 316 315 315 315 315 315 315 314 314 315 315 316 316 316 316 316 316 316 315 315 315 316 317 318 318 319 319 320 321 322 322 322 321 321 322 323 323 322 321 322 322 324 324 324 325 326 327 328 328 328 328 328 326 326 326 325 324 324 325 324 324 324 323 323 323
326 327 327 327 328 327 323 319 315 314 317 321 322 321 319 319 319 320 321 320 320 320 319 319 321 322 322 320 318 318 317 316 316 316 315 315 315 315 314 314 314 314 315 315 315 315 316 316 316 316 316 315 314 314 315 316 316 317 317 318 319 319 320 320 320 320 321 322 322 322 322 322 323 324 324 324 325 325 326 327 327 327 327 327 326 326 326 326 324 325 325 324 324 324 323 322 322
326 326 327 327 327 327 324 320 316 314 316 318 318 319 319 319 319 320 322 321 319 320 319 318 319 321 322 321 319 318 317 317 316 316 316 316 315 315 315 315 315 315 314 314 314 315 315 315 315 315 315 315 314 314 314 315 315 315 316 317 318 318 319 320 320 320 320 320 320 321 322 322 322 323 324 324 324 324 325 326 326 327 327 327 327 326 327 326 325 325 325 324 324 325 323 323 322
326 326 327 327 326 326 323 319 317 315 315 315 317 320 321 322 323 323 323 323 320 319 319 317 317 317 319 319 318 318 318 317 316 316 316 317 316 315 315 315 315 315 315 315 314 314 314 314 314 314 315 315 315 315 314 314 314 315 315 317 318 319 320 321 321 320 319 318 319 319 320 321 321 322 323 324 324 324 324 325 326 327 327 326 326 327 327 326 325 326 326 325 324 324 324 323 324
326 325 325 325 325 324 321 318 318 320 320 317 319 324 325 324 325 325 324 325 323 321 319 318 317 316 316 316 316 317 317 317 317 316 316 316 317 316 316 315 315 315 315 315 315 315 315 314 314 314 314 315 315 315 315 314 314 314 314 315 317 318 319 319 318 317 316 316 316 317 318 319 320 321 322 322 323 323 323 324 325 325 325 326 326 326 327 326 326 327 326 325 323 324 324 324 324
326 325 323 323 324 323 321 319 320 324 324 318 317 322 325 323 324 325 324 324 323 322 320 319 318 317 316 316 316 316 317 318 317 316 316 316 317 317 316 315 315 315 315 315 315 315 315 315 314 314 314 314 314 315 315 315 315 315 314 314 314 315 315 314 314 314 314 314 315 315 316 317 318 319 320 321 321 321 321 322 323 323 323 327 329 326 325 326 326 327 326 324 323 323 323 324 324
325 322 321 322 322 322 321 321 322 323 322 317 315 318 322 321 322 323 323 322 321 320 320 319 319 318 317 316 316 317 318 320 319 317 317 316 317 317 317 316 315 315 315 315 315 315 315 314 315 314 314 314 314 315 315 315 314 314 314 314 314 313 313 313 313 313 314 313 315 316 316 315 316 317 318 319 320 320 320 320 322 323 323 326 328 327 327 327 325 326 327 325 323 323 323 322 323
321 318 320 321 321 321 320 321 322 320 320 320 318 317 320 321 321 321 321 320 320 320 320 320 319 318 317 317 317 317 318 319 320 319 316 315 316 317 317 316 315 315 315 315 315 315 315 314 314 314 314 314 314 314 315 314 314 314 314 315 314 314 314 313 313 313 313 313 314 315 316 315 315 315 316 317 318 320 320 320 321 323 322 323 327 330 331 328 324 326 329 327 323 322 323 322 323
318 316 319 319 318 319 318 320 321 318 319 322 321 318 320 323 321 321 320 318 320 321 320 321 320 319 318 318 317 317 317 317 318 318 316 315 315 317 317 316 315 316 316 316 315 315 315 315 314 314 314 314 314 314 314 314 314 314 314 314 314 314 314 314 314 314 314 314 314 313 315 315 314 314 314 315 317 319 321 321 321 322 322 323 327 331 332 328 325 326 330 329 324 320 321 321 321
316 317 318 317 317 317 318 318 317 319 320 322 321 319 320 322 322 322 322 319 319 321 320 321 321 320 320 319 319 318 317 316 316 316 315 315 315 315 316 316 316 316 316 316 315 314 315 315 315 315 314 314 314 314 314 314 314 314 314 314 314 314 314 315 314 314 315 315 315 313 314 314 313 313 313 314 316 318 321 321 321 322 323 323 325 328 327 326 327 327 328 329 325 320 320 321 320
317 318 318 318 318 317 319 318 317 321 324 320 318 318 319 321 321 322 322 320 318 319 320 320 320 320 320 319 319 318 318 317 316 316 315 314 314 314 314 315 315 316 315 315 315 314 314 314 314 315 315 315 314 314 314 314 314 314 314 314 314 314 315 315 315 315 316 316 316 316 315 315 313 313 313 313 315 317 320 322 322 323 324 323 323 322 322 326 328 326 326 329 326 321 321 323 322
318 318 318 320 321 321 322 322 320 323 323 316 314 318 319 320 320 320 321 319 317 318 318 318 318 318 318 319 318 317 316 315 314 314 314 313 313 313 313 314 314 314 314 314 314 313 313 313 314 314 314 315 314 314 314 314 314 314 314 314 313 314 315 315 317 319 320 319 317 317 317 316 314 313 313 312 314 316 319 321 322 323 323 322 321 319 320 324 325 325 327 329 325 322 323 324 324
318 319 320 322 323 324 325 325 323 324 320 314 313 317 318 318 318 318 319 319 319 318 317 317 317 317 317 317 316 315 313 313 313 313 314 314 313 313 313 313 313 313 313 313 313 313 313 313 313 314 314 314 314 314 314 314 314 314 313 313 313 313 314 314 317 320 322 321 319 317 317 317 315 314 313 312 313 315 317 320 321 322 323 322 321 320 320 320 321 325 329 328 324 322 324 325 325
318 318 320 321 322 324 326 326 325 324 318 313 314 317 319 319 317 316 316 317 318 318 317 317 316 315 315 316 315 314 314 314 314 314 314 314 313 313 313 313 313 313 313 313 313 313 313 313 313 314 314 314 314 314 314 314 314 314 313 313 313 313 314 315 317 320 321 322 321 318 317 317 316 315 314 312 313 314 317 319 321 323 324 324 323 322 321 320 321 325 330 327 323 321 323 326 324
318 318 320 321 321 321 320 318 318 319 317 316 315 316 318 318 317 316 316 315 315 317 317 316 316 315 314 314 314 313 314 314 314 314 314 313 312 313 313 313 313 313 313 313 313 313 313 313 313 313 313 313 313 313 313 313 313 313 312 312 312 312 313 315 317 319 318 320 321 319 317 317 316 316 315 314 313 314 317 319 321 324 325 326 326 324 323 321 320 323 325 323 321 321 323 324 321
318 318 320 319 317 316 317 315 313 314 319 320 316 316 317 317 318 317 316 315 314 316 316 315 315 314 314 315 314 313 314 314 314 314 313 312 312 313 312 313 313 313 313 313 313 313 313 313 313 313 313 313 313 313 313 313 312 312 311 311 311 311 312 313 314 316 317 319 320 319 318 316 315 315 315 314 314 314 316 318 322 325 326 327 326 325 324 323 321 321 321 320 319 320 322 322 319
317 317 318 316 315 315 316 317 316 316 320 321 317 317 317 316 318 319 317 316 315 316 316 315 315 315 315 316 315 314 314 314 314 313 313 312 313 313 312 313 312 313 313 312 313 313 312 313 312 313 313 313 313 313 313 313 312 312 311 311 311 310 311 312 312 313 315 317 319 318 317 316 315 315 315 315 315 315 316 318 322 326 327 326 326 325 325 325 324 322 323 324 322 322 322 320 319
314 317 317 317 318 317 316 317 318 318 321 320 317 316 316 316 317 317 317 316 316 316 316 316 316 316 316 316 316 316 315 314 313 312 313 313 313 312 312 312 312 312 312 313 312 312 313 313 312 313 313 313 313 313 313 313 312 312 311 311 311 311 311 312 312 312 314 315 316 317 316 315 315 315 315 316 316 318 319 320 324 326 327 327 327 327 326 326 325 323 324 325 324 324 323 320 319
312 314 316 316 318 318 317 317 317 318 320 319 318 316 316 317 317 317 318 317 316 317 317 317 317 317 316 316 317 316 315 314 313 312 313 313 312 312 311 312 312 312 312 313 312 313 313 313 313 312 313 313 313 313 313 313 312 312 312 312 312 312 312 312 312 312 312 313 313 314 314 314 315 315 316 317 319 321 322 323 324 326 327 327 327 327 327 326 325 323 323 323 322 321 321 320 320
312 314 316 316 315 315 316 317 316 316 317 319 319 318 317 317 317 317 318 317 317 317 317 317 318 317 316 315 315 315 313 313 312 312 312 312 312 312 312 312 312 312 313 312 312 313 312 312 313 312 312 312 312 312 312 312 312 312 312 312 312 312 312 313 313 312 312 312 312 313 313 313 315 316 317 319 321 323 323 323 323 324 326 327 326 327 327 325 325 325 324 323 322 322 322 321 318
313 314 315 316 316 315 316 318 316 314 315 316 317 318 317 317 317 317 317 317 317 317 317 318 318 317 315 314 313 313 312 312 312 312 312 312 312 312 312 312 312 312 312 312 312 312 312 312 312 312 312 312 312 312 311 311 311 311 311 311 311 311 312 311 312 312 312 313 313 313 313 314 315 316 317 319 321 323 323 323 323 323 325 326 327 329 329 326 325 325 323 322 323 323 321 319 317
Wind_Speed
6 7 7 9 10 11 7 5 5 3 3 0 3 1 4 4 2 4 6 4 3 5 3 3 5 3 1 4 5 7 10 9 6 3 3 8 14 13 13 13 12 13 13 13 13 13 11 10 10 9 9 8 7 6 3 2 1 1 2 3 3 3 3 5 7 8 8 8 8 8 8 8 8 9 12 13 12 11 12 12 13 14 15 17 18 18 16 15 14 12 12 12 12 12 12 12 12
6 7 7 9 9 8 5 3 4 2 3 2 4 2 6 4 3 4 6 3 4 7 5 4 6 3 2 5 4 2 9 12 10 11 9 14 17 12 13 13 12 14 12 13 13 11 11 10 10 9 8 8 7 6 4 4 2 1 1 2 2 3 4 6 7 8 8 8 9 9 10 10 9 10 13 14 12 12 14 15 16 17 17 18 17 17 15 13 13 12 12 12 12 12 12 12 12
6 6 7 8 8 6 5 4 4 2 2 2 5 4 5 4 3 4 6 7 8 8 6 5 5 3 2 2 1 2 6 9 11 13 13 15 15 13 14 13 13 13 12 14 13 11 12 12 11 10 8 8 8 6 5 5 4 2 0 2 3 4 6 7 7 8 8 9 10 10 10 10 10 11 13 14 12 12 15 16 17 17 16 16 15 16 13 11 11 11 11 12 12 12 12 12 12
6 6 5 7 7 5 5 4 3 4 2 2 4 5 4 3 5 7 9 9 8 7 6 5 5 3 5 2 3 2 6 8 9 10 14 13 12 14 15 14 14 13 12 14 14 11 13 15 12 11 8 7 8 6 4 4 4 2 1 4 6 5 6 6 6 8 9 9 10 10 10 9 10 12 12 13 13 12 15 17 18 17 14 14 13 14 12 10 10 10 11 12 12 12 12 12 12
5 5 4 5 7 3 3 3 2 3 2 3 2 6 4 2 6 8 9 8 6 5 5 6 4 3 5 3 5 3 5 7 8 9 14 12 12 15 16 15 15 13 11 12 14 10 11 16 14 11 9 5 5 4 3 3 3 2 2 6 6 5 5 5 5 8 9 9 9 11 11 10 11 12 13 14 14 13 17 19 18 17 14 12 11 11 10 10 11 12 12 13 13 13 13 13 12
4 6 4 4 5 3 3 3 2 0 4 4 3 5 4 3 6 9 9 8 5 3 4 6 2 2 4 1 1 3 4 5 7 10 11 12 14 15 16 15 14 12 11 10 12 10 9 14 14 11 9 6 5 4 3 3 3 2 3 6 6 6 5 4 5 8 10 10 10 11 12 12 12 13 14 15 14 14 15 17 16 16 13 11 10 10 10 10 12 12 13 13 13 13 12 12 12
2 4 3 4 4 3 5 2 1 2 4 4 4 4 4 5 7 9 9 7 5 3 4 5 2 2 2 3 3 2 4 6 6 10 10 14 16 15 16 15 15 12 10 10 10 10 8 11 12 11 10 8 7 6 4 3 3 3 4 6 6 6 5 5 7 9 9 9 10 12 13 13 12 12 13 14 15 15 14 16 17 15 13 12 12 12 12 12 12 12 13 13 12 12 12 12 12
2 3 3 5 3 3 4 2 0 2 4 2 3 3 4 6 7 9 8 6 5 5 6 6 4 4 2 3 2 2 5 8 9 10 11 16 17 15 15 15 15 12 10 10 9 9 8 10 11 10 10 9 8 7 5 5 4 4 4 5 6 7 6 8 10 10 9 9 10 12 13 13 12 11 13 15 15 15 13 15 16 14 13 13 13 13 13 12 12 12 12 12 12 12 12 12 12
2 4 4 5 4 2 3 2 1 2 4 3 2 3 3 5 7 8 7 5 5 6 6 7 6 4 3 3 4 6 5 7 11 11 13 15 16 15 15 14 13 10 9 8 8 8 9 10 10 10 10 9 8 7 5 5 6 4 3 5 8 9 8 9 10 11 11 10 10 12 13 12 12 12 13 14 15 15 13 13 14 13 13 13 13 13 13 12 12 12 12 12 12 11 12 12 12
3 4 4 4 4 3 4 2 2 3 4 3 2 4 5 7 7 7 7 5 5 5 5 6 6 5 1 2 5 6 5 7 11 12 14 14 15 14 14 15 12 9 8 7 7 8 9 9 9 9 9 9 8 8 6 5 6 6 4 6 8 10 9 8 9 11 12 11 12 12 12 12 12 12 13 14 14 15 13 12 13 13 13 13 13 13 13 12 12 12 12 11 11 11 12 12 12
4 3 3 4 4 4 4 2 3 3 5 3 3 5 5 8 8 6 7 5 5 4 6 6 5 6 4 1 5 4 6 8 13 13 15 14 14 13 13 15 13 10 8 7 6 7 7 8 9 9 9 9 9 9 7 6 7 7 7 7 6 8 9 9 8 10 12 12 12 12 12 12 13 13 13 14 14 13 12 13 14 13 13 13 13 13 13 12 12 12 11 11 11 11 11 11 11
5 3 4 4 5 4 1 0 3 4 5 4 4 5 5 9 9 7 7 5 6 5 6 8 2 2 5 1 5 5 6 10 14 13 15 14 13 13 12 14 14 12 9 7 6 6 7 8 9 9 9 10 9 8 8 8 8 8 9 7 7 8 9 10 10 10 12 12 12 12 12 13 13 14 14 14 14 13 13 13 14 14 14 13 13 13 12 12 11 11 11 10 10 10 10 10 10
5 3 4 4 4 3 2 1 1 2 4 4 5 4 6 10 9 7 7 5 6 5 5 8 2 2 3 4 6 5 7 13 14 14 16 14 13 13 12 12 14 13 9 8 6 6 8 8 8 9 9 9 8 7 8 9 9 9 8 6 6 8 10 11 11 12 13 12 13 13 14 15 15 15 15 15 15 14 14 14 14 13 13 13 12 12 11 11 10 10 10 9 9 9 9 9 9
4 2 4 4 2 3 2 2 1 3 3 6 6 4 7 8 7 5 5 6 5 3 6 8 4 3 2 4 8 9 11 16 15 15 16 14 13 14 13 10 12 13 10 9 7 6 7 8 8 9 10 9 9 7 8 11 9 8 7 6 5 7 10 12 13 13 13 13 13 14 14 15 15 15 15 15 14 14 14 13 13 12 12 12 11 10 10 10 9 9 8 8 8 8 8 8 8
3 2 4 4 3 4 4 3 2 3 2 7 4 4 7 5 4 4 5 4 3 4 5 6 6 3 0 1 6 11 14 17 16 16 16 14 13 13 14 11 10 13 12 10 8 7 8 9 8 9 11 10 10 8 8 11 11 9 8 7 7 7 11 13 14 14 14 14 14 14 14 14 15 15 15 14 14 13 12 12 12 11 11 11 10 9 9 8 8 8 7 7 7 7 7 7 8
3 2 4 4 5 4 4 4 2 4 2 6 4 5 7 5 4 5 5 3 2 5 5 3 7 2 5 4 9 11 14 17 17 16 16 14 14 13 13 11 9 11 14 12 10 10 9 9 9 9 10 10 10 9 9 12 12 11 10 9 9 9 12 14 15 15 15 14 14 14 13 13 13 14 13 13 12 12 11 10 10 10 10 9 9 8 8 7 6 6 6 6 6 6 6 6 7
2 3 4 4 6 4 4 6 3 1 4 6 4 6 7 6 5 6 7 6 2 5 5 3 7 5 1 3 9 11 13 17 17 16 18 15 14 13 12 11 9 11 14 14 13 12 11 10 9 9 9 10 11 10 10 12 14 12 12 11 10 11 13 14 15 15 15 15 15 14 12 12 12 12 12 11 11 10 9 9 8 8 8 7 7 6 6 5 5 5 5 5 5 5 5 6 6
4 4 5 5 6 4 3 4 1 2 4 5 4 5 6 4 6 6 5 8 7 5 6 6 8 8 5 4 8 11 13 16 18 17 18 17 15 13 12 13 11 11 15 16 15 14 12 11 10 10 10 10 11 12 11 13 14 13 12 12 12 13 14 15 16 15 15 15 15 14 12 11 10 11 11 10 9 8 8 7 6 6 5 5 4 4 4 4 3 3 4 4 4 5 5 5 6
7 5 5 6 5 2 2 2 2 2 4 5 4 3 5 2 5 8 6 8 10 7 8 9 8 10 11 8 8 11 13 15 17 17 18 18 16 14 14 14 13 13 16 17 16 15 13 11 11 10 11 11 11 13 13 14 16 14 12 13 13 13 15 16 16 15 15 15 15 14 10 9 9 9 9 9 8 7 6 5 5 4 3 3 3 2 2 2 2 3 3 4 4 5 6 6 6
8 6 6 6 5 3 4 2 3 4 4 4 4 1 3 3 3 7 7 8 9 9 8 9 11 12 14 13 10 12 13 15 17 17 18 18 16 16 15 15 16 14 16 18 17 16 14 12 12 11 12 13 12 14 13 13 16 13 11 14 14 14 15 17 17 16 15 15 16 12 7 10 10 9 9 8 7 6 5 4 3 2 2 1 1 1 1 2 2 3 4 4 5 5 6 6 6
5 6 6 3 4 5 4 4 5 5 2 3 4 1 3 2 4 6 7 7 7 9 10 10 10 11 16 17 14 14 14 15 18 18 19 19 18 17 15 15 16 16 16 19 19 16 16 14 13 12 13 13 14 15 14 14 16 13 11 15 15 15 16 17 17 17 16 16 16 10 8 12 10 9 10 8 7 6 5 4 3 2 1 1 1 1 1 2 3 4 5 5 6 6 6 6 6
4 5 5 3 2 4 5 6 5 4 1 2 3 2 2 1 5 8 9 8 2 1 5 7 7 6 13 16 16 17 16 16 19 20 21 21 20 19 17 15 16 17 17 18 19 18 16 15 14 14 14 14 14 15 15 15 17 15 14 16 17 16 17 17 16 16 16 16 16 11 10 13 11 9 10 8 7 6 5 4 3 2 2 2 2 3 3 3 4 5 6 6 6 6 6 6 7
7 6 5 3 4 2 5 5 4 4 2 3 3 1 1 3 7 7 11 12 3 3 2 4 4 5 10 12 14 17 17 18 19 20 22 23 22 20 19 17 17 19 19 19 20 20 18 17 16 16 15 15 15 15 16 16 17 16 16 17 17 17 17 17 16 16 16 16 15 13 12 13 11 10 10 8 7 6 5 4 4 3 4 4 4 5 5 5 6 6 6 7 7 7 7 6 6
11 7 8 7 4 3 5 5 4 4 3 3 1 2 4 7 6 3 9 13 8 9 10 7 5 6 10 11 12 15 17 18 17 19 21 23 23 21 19 17 16 17 19 21 22 21 21 19 18 17 16 16 16 16 16 16 16 16 17 17 17 17 17 17 17 16 16 16 15 14 13 13 12 11 10 9 8 8 7 6 6 5 6 6 6 6 7 7 7 8 8 8 7 6 6 6 5
13 9 8 8 6 6 5 5 4 3 3 2 2 5 7 7 5 4 11 13 8 11 13 10 9 7 9 11 12 14 17 18 17 19 21 23 23 21 19 17 16 16 19 23 24 23 22 21 20 19 18 17 16 16 16 16 16 17 17 17 17 17 17 17 17 17 17 16 16 15 15 14 14 13 12 11 10 9 8 8 7 8 8 8 8 9 9 8 9 9 8 6 5 4 4 6 6
13 12 8 10 9 8 6 5 5 3 3 2 4 8 7 4 5 8 15 13 8 11 13 12 12 10 10 10 11 13 16 18 19 20 21 22 23 22 21 19 19 19 19 22 23 24 24 23 22 21 20 19 18 18 18 17 17 17 17 16 17 17 17 17 17 17 17 17 17 16 16 15 15 14 13 12 11 11 10 10 10 10 10 10 11 10 11 10 9 7 6 5 4 5 4 6 8
9 11 7 9 9 8 7 7 6 3 3 3 5 8 5 4 4 7 7 7 7 8 9 12 13 12 12 12 12 12 15 17 19 20 21 23 25 25 24 22 22 23 22 22 22 23 25 26 25 24 23 21 21 20 19 19 18 17 17 17 17 17 17 18 17 17 17 17 17 16 16 16 15 15 14 13 13 12 12 12 12 12 12 13 13 13 13 12 11 8 7 7 6 6 6 7 8
6 9 6 8 8 8 9 8 8 5 4 4 4 8 6 4 6 9 6 6 6 5 6 10 12 13 12 13 14 14 15 16 19 21 22 24 25 25 25 23 23 24 25 25 24 23 25 27 27 26 25 24 23 22 21 20 20 19 18 18 18 18 18 18 18 18 18 18 18 17 16 16 16 16 15 15 14 13 14 14 14 14 14 14 14 14 15 14 14 11 10 10 9 9 8 7 7
5 8 6 9 8 9 12 12 11 9 5 4 1 8 11 9 10 13 12 11 8 6 8 9 10 12 12 13 15 16 17 17 20 22 22 23 24 24 24 22 22 24 25 26 25 24 24 26 28 28 27 26 25 24 23 22 21 21 20 19 19 19 19 19 19 19 19 18 18 18 17 17 17 17 16 16 15 15 16 16 16 16 16 15 13 12 14 15 14 11 9 10 9 8 7 6 6
6 7 6 8 8 10 15 16 12 10 7 6 3 6 10 10 14 17 15 13 9 7 9 9 10 12 12 13 15 18 19 20 21 21 22 24 25 24 23 22 22 23 24 25 26 27 24 23 27 29 29 28 27 26 26 24 24 23 22 21 21 20 20 20 20 20 19 19 19 19 18 18 18 17 17 17 17 17 18 18 18 18 18 17 13 12 13 12 12 11 9 9 8 8 7 6 6
6 5 5 6 7 6 11 16 13 10 8 9 6 7 8 4 6 12 12 10 9 9 10 10 11 12 13 15 16 18 19 21 21 21 22 24 25 24 23 23 24 24 24 24 26 26 25 23 25 29 30 30 29 28 28 27 26 25 24 23 23 23 22 22 21 21 21 20 21 20 20 19 19 19 19 19 19 19 20 20 20 19 19 17 15 13 11 9 10 10 9 9 8 8 7 6 7
6 5 5 7 8 3 7 14 16 12 8 11 9 6 7 8 7 9 10 9 9 9 10 10 11 12 14 16 17 17 17 20 21 21 23 24 25 26 24 24 25 25 25 24 24 24 25 25 24 26 29 30 31 29 29 28 28 27 26 26 26 26 25 24 24 23 23 23 23 23 22 22 21 21 21 21 20 21 21 20 20 20 19 18 15 13 12 11 10 10 9 9 9 8 7 7 7
6 7 6 8 10 6 5 9 15 15 7 12 14 8 6 7 11 11 11 11 10 10 11 12 12 12 13 14 16 18 16 19 21 21 22 23 25 25 25 25 26 26 25 24 24 24 25 25 23 24 26 29 31 30 29 29 30 29 29 28 29 29 28 27 27 26 26 26 26 26 25 24 24 23 23 22 22 22 21 21 20 19 19 18 15 14 15 12 10 10 9 9 9 8 8 8 7
6 7 7 8 10 8 6 5 10 14 9 11 14 12 12 8 6 8 9 12 11 11 11 12 12 12 13 13 15 18 17 19 22 22 21 22 23 24 25 26 26 27 26 26 25 25 24 24 24 23 24 26 29 30 30 30 30 31 31 30 31 31 31 30 30 29 29 30 29 28 28 26 26 25 24 24 23 23 22 22 21 20 20 19 16 15 15 12 10 10 9 8 10 9 8 7 6
9 9 8 8 7 7 8 3 8 13 11 11 12 12 18 16 11 10 11 11 12 12 11 11 12 12 12 12 14 16 18 21 24 22 21 22 23 24 25 26 27 27 27 27 26 26 25 25 24 24 24 25 27 29 30 31 31 31 32 32 33 33 33 32 32 32 32 33 32 31 30 29 28 27 26 26 25 24 24 24 23 23 22 21 19 18 16 13 12 12 11 10 10 10 9 8 8
12 11 9 8 6 7 9 3 7 11 9 11 13 13 16 16 15 17 17 14 13 15 14 13 13 13 12 12 14 15 19 23 24 23 23 24 25 24 25 26 27 27 27 27 27 27 27 26 26 26 26 26 27 29 30 32 33 33 34 34 34 35 34 34 33 33 34 35 35 33 32 31 30 29 28 28 27 26 26 25 24 24 24 23 22 21 17 15 13 13 13 12 10 11 11 9 10
10 11 9 10 7 6 9 6 7 7 7 9 13 14 17 16 13 16 20 18 16 17 18 17 15 14 14 15 16 18 20 22 21 21 21 23 24 24 25 26 27 27 27 28 28 29 28 28 28 27 27 27 29 31 32 34 35 36 36 36 36 36 35 35 34 34 35 36 36 34 33 33 31 30 30 29 29 29 28 27 26 26 25 24 24 22 19 17 15 14 13 12 11 12 10 8 9
8 8 7 8 8 6 4 4 7 5 5 8 11 12 16 16 13 14 17 18 18 19 19 20 20 18 18 18 19 21 23 23 21 20 19 20 21 23 25 27 28 28 28 28 28 28 28 28 29 29 29 29 30 32 34 35 37 37 36 36 37 36 36 36 34 34 35 36 36 35 34 34 32 31 31 31 31 30 30 29 28 27 25 24 25 23 20 19 18 16 15 15 14 13 11 9 10
7 5 5 6 7 5 2 5 7 5 4 7 9 11 13 14 14 15 17 18 20 21 20 21 23 23 22 21 20 20 23 26 25 23 21 21 20 20 23 26 28 29 29 29 28 28 29 29 31 31 31 30 30 31 33 35 36 36 35 36 36 36 36 35 35 34 35 35 35 35 35 35 33 32 33 34 33 32 32 32 31 29 26 24 25 24 22 21 19 17 17 17 15 14 12 12 13
7 5 7 6 6 6 4 6 8 5 4 5 7 9 11 13 14 15 20 23 23 23 23 22 24 25 25 23 20 19 21 26 28 26 25 24 22 21 22 25 27 29 30 30 30 30 30 31 31 32 31 31 31 31 31 32 33 34 34 35 36 36 35 35 36 36 37 37 36 36 36 36 35 34 34 35 36 35 34 33 32 30 27 26 25 24 23 23 20 18 18 18 17 16 14 13 14
8 8 8 6 7 7 2 3 6 5 5 5 6 8 10 13 15 15 16 21 24 25 24 23 25 26 27 26 24 22 21 23 27 28 28 27 26 24 23 24 25 27 30 30 31 31 30 31 31 32 32 31 31 31 30 30 31 33 34 35 36 36 36 36 38 39 39 39 39 39 38 38 36 35 35 36 37 37 36 34 32 30 28 27 26 25 25 24 21 20 20 20 19 19 16 14 14
8 9 10 8 6 6 3 4 3 4 5 7 7 7 6 7 13 14 11 13 18 21 23 24 24 24 28 32 32 31 29 28 29 28 29 29 28 27 25 25 26 26 27 28 29 30 31 31 32 32 32 32 32 32 32 31 31 33 34 36 37 38 38 39 40 41 41 40 40 40 40 39 37 36 36 36 37 38 38 36 33 32 29 28 28 27 26 24 21 21 22 21 21 21 19 16 16
7 6 10 11 7 5 5 5 4 4 3 4 7 7 5 4 9 11 9 11 13 15 18 22 23 22 25 31 35 37 36 35 33 30 30 30 30 29 27 26 26 26 26 27 28 29 30 32 34 34 34 34 34 34 35 34 33 33 34 36 37 38 39 40 40 40 40 40 40 41 40 40 39 37 36 37 38 38 38 37 34 33 30 29 30 29 29 26 23 23 23 21 21 21 21 21 21
4 3 9 12 9 6 6 5 5 5 3 1 7 7 7 7 10 11 9 10 12 14 16 18 21 22 23 26 31 38 40 39 37 34 32 32 32 32 30 27 26 25 26 27 28 28 29 30 32 34 35 35 35 36 37 36 34 34 35 35 36 38 38 38 38 39 39 40 40 40 40 40 39 38 37 37 36 36 37 36 35 33 31 31 32 32 32 29 26 25 24 23 22 21 22 22 24
1 3 5 8 7 5 5 4 5 3 3 5 7 6 5 7 8 8 7 10 14 15 15 15 18 22 25 25 29 35 39 40 39 36 33 32 32 33 32 30 27 24 24 25 26 28 28 29 30 31 33 34 35 36 37 37 36 35 35 36 37 38 38 38 38 39 39 39 39 39 39 39 39 38 37 35 34 34 35 35 34 34 32 31 31 32 32 29 27 27 26 26 25 23 23 22 24
4 6 6 6 4 4 3 3 4 3 4 8 7 8 6 6 7 7 7 9 13 12 10 12 16 21 23 24 25 28 30 34 36 34 31 30 31 32 33 32 29 27 27 26 26 27 28 29 30 30 31 33 34 36 37 38 38 37 37 38 38 39 39 39 39 39 39 38 38 38 38 38 38 37 35 33 32 34 34 34 34 33 32 31 32 34 33 28 27 28 28 29 26 24 24 23 23
10 9 8 7 4 3 3 2 1 3 7 8 9 12 9 6 5 8 7 6 7 8 7 9 13 16 18 20 22 21 21 26 30 30 29 28 30 32 34 34 33 31 30 28 27 27 28 30 31 32 32 32 33 36 38 39 39 39 39 39 39 40 40 40 40 40 41 39 38 38 37 38 37 36 35 33 32 33 34 33 32 31 30 31 33 36 35 32 29 30 30 31 28 25 24 23 23
11 7 7 7 4 3 3 3 2 5 6 3 4 10 11 8 5 5 6 3 4 7 8 7 7 9 12 14 16 17 18 22 26 26 25 26 27 29 30 32 32 32 30 28 26 24 25 28 30 32 33 34 34 35 37 39 39 40 40 40 40 40 41 42 42 41 41 41 40 38 37 37 37 36 35 33 32 33 34 33 31 30 30 31 33 34 34 33 31 32 33 34 31 28 27 25 25
9 7 8 7 4 4 5 5 5 7 4 3 3 3 7 10 8 8 10 7 6 8 8 7 6 7 8 7 9 13 16 18 19 18 18 19 20 21 23 25 27 27 27 26 24 22 21 23 25 28 30 33 36 37 37 38 39 40 40 40 40 40 41 42 41 38 36 39 41 39 38 38 38 37 36 34 32 33 34 34 33 32 32 32 32 32 32 31 32 33 35 34 32 30 29 29 28
10 9 9 8 6 6 7 7 6 6 3 4 4 3 5 9 7 11 16 15 13 12 11 11 10 10 10 7 7 10 12 12 12 13 14 15 16 17 19 21 22 23 22 22 21 20 19 19 21 23 25 28 33 38 39 39 39 39 39 40 40 41 41 41 40 34 30 32 37 40 39 39 39 38 36 34 32 32 33 34 34 32 31 31 31 30 30 30 32 33 34 33 33 33 32 31 30
10 8 7 8 7 6 5 5 6 4 3 4 5 3 5 5 1 3 8 10 11 11 13 12 9 11 13 11 12 15 16 14 13 14 14 14 15 17 19 21 23 23 23 23 22 21 21 20 20 22 23 24 28 33 38 41 41 40 40 41 41 42 41 39 36 33 31 30 32 37 38 37 37 37 35 35 32 31 32 32 33 32 31 30 30 29 29 31 33 34 35 35 34 34 33 33 31
8 8 9 9 6 4 2 1 1 1 1 3 6 4 5 4 5 6 6 5 7 10 11 11 10 12 12 13 16 19 19 17 15 15 14 14 15 16 18 20 24 26 25 25 24 24 23 23 22 23 23 23 24 28 32 36 39 40 41 43 42 41 40 38 35 34 34 33 31 35 37 36 36 35 34 35 33 32 31 31 31 31 30 30 31 30 31 32 33 35 36 37 36 36 35 33 32
7 9 10 5 1 2 2 1 2 1 4 4 5 4 5 5 8 10 10 7 7 9 11 12 13 14 12 12 14 16 16 15 16 15 14 14 14 15 16 17 21 26 27 25 25 25 25 24 24 23 23 24 24 25 28 30 33 36 39 41 40 39 39 38 36 35 34 33 32 34 36 36 36 34 34 34 33 32 31 30 30 30 31 31 32 31 31 31 32 33 35 35 36 36 36 34 33
7 9 8 5 4 3 3 3 2 3 6 4 5 6 5 4 5 5 10 11 10 10 11 12 14 14 13 12 14 16 15 15 16 15 14 15 14 15 16 16 17 22 27 26 25 25 25 24 24 23 23 23 24 24 25 26 28 30 32 35 35 35 36 35 35 34 33 33 32 34 36 36 35 34 33 33 32 32 31 30 30 31 31 31 31 31 31 31 32 33 34 35 35 34 34 34 34
3 5 7 6 2 4 5 4 3 5 6 4 5 8 7 7 5 3 9 13 13 13 12 12 13 13 13 12 13 16 16 15 14 14 14 16 15 14 14 15 14 17 22 24 23 23 22 21 20 20 20 20 20 20 20 21 23 24 26 28 30 31 32 32 33 33 33 34 34 35 37 37 35 34 33 32 31 30 29 29 30 30 31 31 30 30 31 32 34 34 35 36 35 34 34 34 35
2 3 8 6 4 4 6 5 3 3 6 5 4 5 5 7 8 7 10 12 12 13 12 11 11 10 10 10 9 11 14 14 14 14 15 15 14 13 14 14 14 14 16 17 17 17 16 15 15 15 16 16 16 17 17 18 19 21 22 24 25 27 28 29 31 31 32 34 35 36 37 37 35 34 33 31 30 29 29 31 31 31 31 31 31 31 32 34 33 32 33 35 35 34 35 35 35
5 6 10 8 3 1 2 5 4 2 4 5 5 5 4 3 6 7 10 9 9 10 9 8 8 5 5 5 5 6 9 11 13 14 14 14 13 13 13 13 13 13 13 12 12 12 12 12 13 13 14 14 15 15 16 17 18 19 21 22 23 25 26 28 30 31 32 33 34 35 36 35 34 34 33 31 29 29 31 32 32 32 31 31 32 33 34 34 32 32 34 35 34 34 36 35 33
10 8 9 10 8 4 3 6 5 3 3 3 3 6 4 3 4 5 6 6 8 10 9 7 4 2 2 3 5 6 7 10 11 13 14 12 12 11 11 11 11 11 11 10 10 10 10 10 10 11 11 11 12 13 14 15 16 17 18 19 21 22 24 26 28 30 32 32 33 34 34 34 34 33 32 30 30 31 32 32 32 32 32 31 32 34 35 34 32 34 35 35 34 35 36 34 31
Wind_Direction
308 320 330 328 333 330 309 277 266 211 252 83 87 110 97 69 81 134 134 131 142 116 71 108 130 130 151 344 3 28 34 30 21 51 117 128 140 140 134 139 148 149 149 157 153 149 154 148 148 155 162 170 174 179 191 207 242 0 49 51 42 56 84 100 109 109 109 105 106 103 103 109 106 102 101 98 95 94 94 90 86 84 88 88 86 88 91 91 88 89 87 84 85 84 84 82 81
302 317 326 326 328 319 302 270 274 207 225 132 92 50 91 115 169 154 140 126 89 107 124 133 147 152 341 337 329 357 54 47 50 83 109 135 138 141 141 139 147 146 150 157 151 154 156 153 160 166 177 186 188 190 204 221 231 224 40 38 64 85 107 109 107 108 107 101 99 99 99 101 100 102 103 99 93 89 92 90 86 86 87 89 88 90 93 96 96 92 86 82 81 80 79 78 78
300 315 324 326 316 289 281 258 265 284 263 108 94 88 111 149 154 112 98 87 87 118 136 133 159 167 271 258 274 356 74 67 76 102 122 136 142 147 145 141 149 152 152 149 145 156 161 164 172 176 185 195 201 203 212 225 229 228 180 95 111 105 106 108 109 110 105 101 101 104 105 104 104 104 102 100 97 94 99 100 97 92 88 92 95 96 97 101 100 91 86 82 80 79 79 79 79
299 308 322 321 293 266 268 252 275 298 321 54 91 110 137 150 119 93 83 88 102 137 147 161 171 190 252 326 1 31 95 90 88 115 124 133 159 150 146 148 150 155 153 150 150 159 170 174 178 180 181 184 195 201 209 219 225 239 150 129 127 119 107 106 115 113 105 103 103 102 102 101 102 105 107 106 104 103 109 110 105 102 98 100 107 109 108 104 98 92 88 85 83 82 82 82 81
303 306 320 310 283 290 304 276 279 282 17 19 66 110 142 127 113 104 99 101 112 146 163 192 170 163 232 322 342 24 92 105 104 120 120 146 179 151 147 148 148 155 154 156 158 163 176 180 185 189 189 183 189 194 200 219 226 240 162 149 143 145 129 112 120 115 105 103 104 106 105 100 99 105 110 107 102 101 113 117 110 109 109 108 118 126 121 106 99 95 91 88 87 85 86 85 83
308 302 305 293 284 305 278 254 242 180 41 357 30 97 138 121 119 120 117 112 113 143 173 202 190 117 193 204 17 43 105 120 114 129 129 165 173 150 147 145 149 156 156 157 162 173 179 181 192 198 204 210 210 209 207 227 225 210 172 167 162 164 155 132 125 114 108 106 109 115 112 105 102 107 112 109 105 103 114 122 116 115 118 119 123 128 125 109 99 95 93 91 89 89 88 86 84
271 280 270 257 245 248 258 253 269 93 62 357 28 79 129 127 131 135 138 137 142 164 186 190 213 244 155 131 137 97 144 118 113 144 160 166 155 152 147 142 152 155 159 160 165 179 178 177 190 199 207 216 218 215 208 214 206 186 171 176 173 167 167 146 126 116 114 112 112 117 113 110 111 110 113 113 112 108 110 117 116 117 119 121 118 116 116 106 99 97 95 93 92 91 88 85 82
232 271 282 276 229 212 264 262 314 65 74 39 53 66 92 133 149 152 160 161 164 166 184 182 213 248 118 120 140 116 174 144 129 147 172 162 149 154 145 143 155 157 161 163 174 175 170 174 183 193 202 209 209 206 201 201 192 173 162 173 163 152 153 134 127 125 121 117 115 120 118 117 120 118 118 117 116 114 114 117 118 119 118 117 115 112 111 106 103 100 97 95 92 89 85 82 79
233 254 262 275 253 218 247 228 128 92 101 108 112 110 107 156 167 165 169 152 155 163 176 181 206 250 94 139 113 100 199 168 135 142 161 155 151 153 142 151 156 155 160 163 178 168 168 174 179 187 196 201 192 183 179 182 182 177 155 150 143 142 150 135 132 137 131 127 128 129 126 124 126 124 121 120 121 121 122 122 122 124 119 117 117 116 114 111 107 103 98 94 89 86 82 80 79
221 239 259 271 261 238 224 197 130 124 113 110 106 140 161 176 183 179 176 152 153 166 155 167 204 250 4 129 109 122 202 160 144 148 153 155 154 150 143 157 158 152 157 159 170 167 171 171 174 181 186 193 177 162 154 147 169 179 144 126 135 141 152 148 139 139 137 136 135 132 127 124 125 124 122 123 126 125 124 123 123 123 118 117 117 117 115 112 108 104 99 95 90 86 83 80 79
220 214 260 272 243 238 226 169 142 142 121 135 124 139 172 177 189 192 187 162 158 162 145 174 208 230 244 85 105 177 219 153 151 153 154 163 154 149 150 159 161 154 155 156 161 165 170 166 169 173 174 177 165 155 148 144 160 166 142 134 151 150 153 155 145 135 135 135 129 127 124 122 121 121 120 123 126 123 122 122 120 120 117 117 117 116 114 112 109 104 100 96 91 86 82 78 76
236 196 212 250 242 249 279 101 140 141 144 165 136 137 172 177 190 195 193 170 167 182 165 193 201 190 219 137 118 188 212 153 155 159 158 168 156 151 157 162 162 156 158 153 157 163 163 169 165 164 167 165 159 155 151 149 154 160 151 150 163 159 158 156 149 136 134 132 126 124 121 118 117 118 118 119 120 115 115 117 118 120 119 119 117 117 114 112 109 105 101 95 90 85 80 76 72
244 197 214 244 258 278 346 304 125 146 178 142 101 124 167 177 192 196 195 182 179 187 159 181 190 240 206 107 132 164 174 155 157 166 162 166 160 153 156 166 163 156 158 150 157 166 161 171 166 160 161 158 159 156 151 153 152 158 161 158 152 155 155 150 149 140 132 129 124 122 117 114 114 114 114 114 113 110 110 113 117 119 119 119 117 116 114 112 108 104 101 95 91 85 79 75 68
244 230 237 244 256 270 278 265 188 202 178 104 81 120 167 177 195 205 204 194 176 149 139 169 200 247 192 136 155 156 166 162 161 169 166 164 161 162 160 163 164 157 157 152 160 170 167 171 167 162 159 157 164 165 155 157 158 157 160 157 147 147 148 147 147 139 130 128 124 122 118 116 115 114 114 112 110 110 111 113 116 119 118 117 115 116 114 111 108 105 101 97 92 86 80 73 68
256 281 246 252 245 236 228 253 289 237 139 97 95 141 168 179 184 202 225 211 128 142 163 183 209 240 0 129 140 157 181 172 162 168 169 166 167 174 169 166 169 160 158 161 166 172 179 177 170 165 164 164 166 172 166 163 167 164 162 160 155 150 152 151 147 141 135 132 129 125 123 122 121 118 117 114 113 113 115 116 117 117 115 113 112 111 109 108 106 104 99 94 89 83 77 69 64
248 271 236 245 238 220 193 207 249 242 95 92 117 152 178 185 182 202 223 222 95 178 196 185 205 228 26 57 110 153 194 181 167 168 172 173 176 184 177 169 169 168 167 169 175 176 184 186 179 170 169 172 166 172 180 176 173 171 169 165 164 158 159 157 151 148 142 138 134 130 129 127 125 123 121 120 121 120 119 119 116 114 112 110 108 107 104 102 99 96 91 85 81 73 67 61 53
216 241 230 228 227 216 182 194 204 185 88 92 128 172 188 172 183 218 219 219 223 191 188 179 202 202 42 124 140 163 193 188 176 169 174 179 180 187 183 172 171 181 179 176 181 181 184 192 189 181 175 176 172 172 184 186 178 175 173 166 166 163 163 162 158 155 148 145 140 136 136 133 132 129 127 127 127 126 125 122 117 113 109 107 103 101 100 96 94 89 84 78 70 63 54 48 42
194 219 224 222 225 217 184 186 161 69 83 88 122 187 212 175 175 205 214 217 221 204 191 205 214 203 214 206 161 178 192 186 181 174 178 182 182 187 185 181 178 188 190 184 185 184 184 190 193 193 186 181 177 174 183 190 182 178 175 169 168 167 165 166 164 161 155 151 147 146 143 142 143 139 136 138 137 134 131 127 120 115 108 103 97 93 90 87 88 79 75 69 60 53 39 37 35
213 228 226 228 223 129 77 88 81 85 93 87 99 186 234 215 168 187 208 213 206 213 209 205 213 202 208 213 172 183 189 179 182 182 183 186 185 186 188 190 185 187 196 192 189 189 187 189 192 196 194 189 184 180 183 188 184 181 178 173 171 170 169 169 169 167 162 159 157 154 151 158 157 151 150 149 148 144 140 136 128 123 110 99 92 81 75 67 60 54 49 47 44 38 27 26 20
222 229 231 234 208 126 80 73 89 99 106 106 96 120 236 236 170 182 214 228 209 219 218 200 210 202 199 209 190 186 195 186 184 186 189 192 190 189 192 196 192 191 197 196 194 193 189 190 192 195 198 194 190 187 184 185 184 182 181 178 175 174 173 173 174 174 169 167 167 161 166 179 169 163 165 162 163 159 156 152 143 137 121 101 83 39 23 19 5 12 16 21 20 20 18 14 6
212 215 243 264 189 171 121 108 98 100 101 117 110 137 227 216 204 205 223 235 221 224 225 212 221 205 193 208 205 196 204 200 192 191 194 197 195 194 197 202 198 197 203 200 200 199 194 194 194 196 201 198 194 191 188 189 187 185 184 182 180 178 179 179 179 179 176 175 174 170 180 184 177 174 176 179 181 176 175 172 179 184 184 254 292 304 315 332 334 346 351 357 357 -0 1 354 354
211 211 263 338 198 186 122 112 108 111 98 162 164 206 217 187 224 227 230 235 242 211 213 211 233 210 193 213 215 204 208 209 205 202 200 201 202 199 199 205 203 202 209 208 205 205 202 200 199 199 202 201 200 196 192 194 194 193 189 185 184 182 183 185 184 183 182 181 180 179 182 184 185 187 186 192 196 192 193 196 216 231 251 265 281 292 299 310 315 325 331 341 340 336 335 328 331
219 216 224 259 253 194 117 124 129 136 180 217 198 203 220 244 241 230 233 241 285 356 250 202 218 191 193 219 221 211 213 215 216 215 211 208 207 205 202 204 207 207 209 211 210 210 209 206 205 204 204 204 205 203 199 200 201 198 195 191 190 189 188 190 189 187 187 187 187 186 184 187 193 197 198 203 208 210 209 215 233 247 259 265 273 282 289 297 301 309 313 316 316 313 313 316 320
222 227 196 201 224 175 128 126 138 158 197 231 223 245 233 241 252 230 236 245 258 273 264 243 229 194 198 223 224 218 222 224 227 225 219 213 212 212 207 204 210 211 209 213 215 215 215 213 212 210 209 209 208 210 207 206 205 203 202 199 198 197 196 195 194 192 192 193 194 194 191 193 200 205 207 210 215 221 221 225 237 246 254 262 267 273 281 287 289 293 297 300 305 305 312 324 321
220 232 187 172 179 166 136 127 139 151 186 208 226 247 238 237 266 265 252 256 246 251 260 251 234 213 209 221 223 219 222 226 227 224 219 216 217 214 209 207 210 213 213 219 221 218 219 217 216 216 215 214 212 213 214 211 208 207 207 206 205 205 203 201 200 199 198 198 200 200 199 200 205 210 213 214 219 225 229 233 240 247 253 260 263 267 272 278 282 282 283 285 291 293 306 311 300
212 221 191 174 181 169 153 164 167 154 179 187 228 245 235 221 271 266 254 253 231 236 252 248 229 218 214 211 216 220 220 225 223 222 223 220 216 212 212 211 209 214 218 224 225 220 220 220 219 220 219 219 217 216 215 215 213 211 211 210 210 209 209 209 207 207 205 205 206 206 206 208 210 215 218 220 225 230 235 239 243 249 254 259 263 266 269 271 273 274 276 279 288 293 291 290 293
191 202 192 186 189 178 183 199 192 189 209 199 239 255 230 174 240 253 227 206 212 235 244 240 228 217 216 212 215 219 220 226 224 221 223 220 217 216 218 218 215 216 219 225 228 223 221 222 221 221 222 222 221 221 218 219 219 216 216 215 215 213 212 214 214 214 214 213 214 213 213 215 217 220 223 225 230 236 240 244 248 252 255 259 262 263 267 269 265 263 268 270 270 277 278 282 291
167 183 185 197 199 198 206 213 207 212 218 195 246 280 256 179 212 236 211 189 218 229 224 232 227 216 216 216 218 220 219 222 222 221 224 226 226 226 228 231 226 220 221 226 231 231 225 224 224 223 224 225 223 225 224 223 223 221 221 220 221 219 217 218 219 219 219 221 222 222 221 222 224 226 229 231 234 240 244 247 250 255 258 261 262 259 261 267 268 267 269 274 275 277 278 273 280
167 179 204 211 215 226 219 217 217 216 201 166 240 283 253 216 211 229 234 239 240 213 211 222 221 217 217 215 218 225 224 219 221 226 230 232 234 235 237 240 235 227 227 227 230 235 231 225 225 225 225 227 225 227 228 228 227 226 224 224 225 224 223 223 223 224 224 225 227 228 228 228 230 231 234 236 238 243 247 251 254 257 260 261 262 261 261 265 269 271 274 285 293 291 289 286 286
173 183 228 219 220 238 223 218 217 212 197 158 179 261 250 226 215 220 222 225 222 209 214 215 215 216 215 214 218 227 228 225 228 232 234 233 235 238 239 241 239 236 234 229 228 234 234 227 225 225 225 227 228 227 230 231 230 230 229 227 229 228 228 228 228 228 228 228 230 230 230 232 234 235 238 240 241 246 251 254 257 260 263 262 260 263 265 266 269 272 273 282 292 293 293 293 289
179 173 228 228 234 237 206 207 203 199 192 166 187 251 256 250 212 206 207 206 202 215 225 219 216 212 214 219 222 228 231 233 236 237 236 235 236 239 239 239 239 239 237 235 232 230 231 230 228 226 225 227 229 229 230 233 233 233 233 230 231 232 231 232 232 232 232 232 233 233 233 235 237 239 242 246 246 249 253 257 260 261 263 262 259 261 264 265 271 276 275 273 276 279 281 280 280
188 182 209 219 233 222 172 195 201 203 192 174 194 248 251 254 243 201 196 207 207 224 235 227 221 214 216 224 228 229 231 236 239 237 238 237 237 239 239 239 239 240 240 241 238 230 228 232 233 230 227 227 229 230 231 233 235 235 236 235 235 236 234 234 235 235 235 236 237 237 237 238 241 243 245 249 250 251 254 257 260 261 260 258 259 263 264 263 267 270 271 271 270 270 273 270 274
195 205 220 210 215 225 185 183 202 212 197 184 204 240 250 237 235 217 212 220 215 227 240 236 230 222 218 221 227 231 228 234 238 236 236 237 236 238 239 239 239 241 242 243 242 236 231 231 236 235 232 231 231 232 232 232 234 236 238 237 238 239 238 237 237 238 238 239 240 241 241 241 242 244 246 248 250 252 253 255 257 259 258 257 259 265 268 267 263 264 270 276 278 272 265 264 269
190 204 230 226 218 227 209 163 189 203 200 202 208 232 249 235 208 207 215 221 217 221 231 232 231 226 224 222 224 230 227 231 238 236 236 237 237 236 238 240 240 241 242 242 243 242 237 233 236 237 235 234 233 234 234 233 234 236 238 238 239 241 240 240 240 240 241 242 242 243 243 243 243 244 245 247 249 251 253 254 255 256 257 259 261 264 267 265 256 260 267 270 274 272 264 261 264
192 195 213 225 220 225 229 189 166 183 199 221 216 224 244 246 233 224 212 207 218 226 224 228 233 226 225 225 225 230 230 233 238 239 240 242 243 239 238 240 240 241 242 241 242 242 241 237 237 236 234 233 233 234 235 235 235 235 237 237 239 241 240 240 240 240 241 242 243 243 244 244 244 244 245 246 247 250 252 254 255 256 257 261 264 265 263 259 255 256 258 262 270 274 273 266 255
205 198 201 213 213 221 231 198 146 180 203 222 227 232 244 247 242 239 228 213 222 238 239 235 233 228 227 230 230 232 235 240 241 241 245 247 247 244 241 242 242 242 242 242 242 241 241 239 237 235 232 230 231 232 233 234 234 234 235 236 237 239 240 240 239 239 241 242 242 242 243 244 245 245 246 247 248 249 252 254 255 256 258 263 266 267 263 258 258 258 260 266 269 271 278 278 266
218 203 203 217 223 228 226 191 141 178 219 226 232 240 249 250 245 243 239 232 229 235 241 240 234 229 231 233 233 236 243 247 246 242 244 247 248 248 245 244 244 243 242 241 241 241 241 241 240 238 234 232 230 231 232 233 234 234 235 236 237 239 241 241 240 240 241 243 244 242 242 244 245 247 247 248 249 250 251 253 254 255 257 262 264 264 260 255 258 259 261 264 261 263 271 275 270
217 205 203 217 227 239 232 172 145 156 224 244 245 249 255 256 254 249 243 241 235 229 233 237 236 235 236 234 232 238 246 249 247 242 242 247 248 247 245 242 242 242 241 240 240 241 242 242 242 240 237 236 234 233 233 235 237 237 238 239 240 241 243 244 244 243 244 246 247 246 245 244 245 247 248 248 249 250 251 251 252 254 255 258 260 261 257 256 255 253 255 257 256 260 258 247 250
214 210 214 227 224 224 193 153 157 164 214 251 259 260 264 264 261 254 244 241 240 235 233 233 235 238 237 233 228 230 240 246 245 241 242 247 247 246 246 241 240 241 241 242 242 242 243 243 243 241 239 238 239 238 236 238 240 242 243 244 245 246 246 248 249 248 248 248 249 249 248 247 245 246 248 250 250 250 250 251 251 252 253 253 256 258 256 255 253 248 248 250 248 254 252 241 244
219 217 219 231 215 216 226 181 169 179 223 272 286 275 274 274 266 257 245 241 242 240 237 233 232 235 236 233 229 225 232 244 247 242 242 247 247 244 244 241 240 239 240 241 241 242 242 243 243 243 241 241 242 242 240 241 243 244 245 246 247 249 250 250 251 250 250 249 249 249 249 248 246 245 247 250 252 252 251 251 250 249 249 248 251 254 253 253 252 246 246 247 242 242 244 245 251
218 222 224 231 213 218 234 144 158 197 233 249 275 280 272 263 257 255 245 235 236 236 234 232 227 231 236 235 233 229 228 238 246 246 245 248 249 245 242 243 243 241 241 241 241 242 242 243 244 244 244 243 243 245 244 242 241 242 242 242 244 245 245 245 246 248 248 248 248 248 248 248 247 246 247 248 251 252 251 250 248 246 244 245 246 247 251 254 252 246 246 249 242 236 236 242 249
217 219 224 231 228 220 181 139 163 248 248 203 213 262 266 247 245 248 246 233 232 230 229 230 224 225 234 237 237 237 236 239 246 249 248 249 250 250 247 244 244 243 242 243 244 244 245 245 245 246 245 244 244 245 246 243 241 241 240 240 241 241 242 243 245 247 248 249 249 249 249 249 249 247 247 248 249 251 251 249 247 245 243 244 245 245 249 253 247 242 245 247 240 237 234 233 240
227 206 205 220 242 240 199 183 201 257 286 164 191 248 272 273 261 255 247 238 234 229 227 230 227 225 230 235 238 240 241 242 244 246 247 248 249 251 251 246 244 244 244 244 245 245 246 247 247 246 245 244 244 245 246 245 243 242 242 243 245 246 247 248 250 251 251 252 252 252 251 251 250 249 248 248 250 251 251 250 249 246 242 242 245 246 249 250 244 241 246 247 243 241 238 234 238
227 138 177 205 224 223 209 210 223 256 321 183 196 235 270 273 269 267 250 240 240 234 230 228 227 228 227 229 235 240 242 242 241 241 244 246 246 246 249 249 246 247 249 249 248 248 248 249 250 249 247 246 245 245 246 247 246 245 246 247 248 249 251 253 253 253 253 253 252 252 253 252 252 250 249 250 251 252 252 251 249 246 241 238 243 248 248 250 248 246 248 250 247 244 242 237 236
169 93 159 189 205 205 207 221 235 270 316 251 204 197 253 259 255 259 233 234 246 240 235 229 223 225 225 225 231 237 242 242 240 240 242 243 244 244 246 248 248 250 255 256 253 252 250 249 249 250 250 249 248 248 248 248 249 248 249 249 250 251 252 253 253 253 254 254 251 251 252 254 254 252 251 251 251 252 251 250 248 246 242 237 239 244 245 248 250 247 247 250 250 246 243 237 235
120 120 120 129 159 173 188 229 241 255 262 255 217 187 233 269 247 234 214 226 246 246 241 234 226 225 227 228 231 234 237 240 241 241 242 243 241 240 242 244 247 251 256 259 256 253 251 248 246 246 247 247 248 249 249 250 250 250 250 249 250 252 253 253 253 252 253 253 252 252 252 254 256 256 254 251 249 249 248 247 245 244 244 237 233 237 243 247 247 243 243 248 251 249 244 239 239
126 128 117 118 133 141 173 239 266 264 252 245 221 203 221 272 242 216 219 214 227 244 248 237 232 231 232 234 235 232 227 233 238 240 243 244 240 239 240 242 246 251 255 257 256 253 251 249 247 246 245 245 245 246 248 250 251 251 250 250 251 252 253 253 253 253 253 253 254 255 254 255 257 258 256 252 247 246 245 245 244 242 242 238 233 236 241 242 240 239 242 247 251 250 246 241 240
143 145 136 133 132 142 185 200 187 246 252 229 211 204 212 239 228 208 238 216 193 240 246 227 220 227 237 239 233 227 225 232 237 238 243 247 245 243 242 242 245 248 250 251 251 251 250 250 249 248 246 246 245 244 246 248 250 251 252 251 252 252 252 253 255 255 253 252 253 254 253 254 256 255 254 251 246 243 242 242 242 239 238 238 237 238 238 236 236 239 241 244 249 249 244 241 240
170 163 159 160 161 177 210 207 206 237 232 106 93 165 211 242 249 245 258 254 223 232 233 225 229 241 253 242 221 227 232 233 232 235 241 245 245 244 241 240 240 242 244 244 244 245 246 248 249 249 249 249 248 245 245 246 247 250 252 252 253 253 253 254 254 254 252 251 251 251 250 252 254 254 254 252 248 244 242 241 241 239 239 240 240 239 235 232 233 237 239 242 246 248 245 242 241
181 173 174 185 179 187 212 208 214 231 198 125 116 128 243 262 261 244 250 254 242 226 223 236 250 255 260 248 226 238 239 231 231 237 242 245 248 246 241 240 240 241 242 240 240 239 240 243 243 246 248 249 250 248 245 244 244 246 248 250 251 252 253 253 251 249 249 250 251 250 250 252 253 253 254 254 251 247 244 242 242 240 240 241 242 242 238 232 231 234 238 240 244 247 246 243 244
186 187 188 200 198 204 216 208 213 207 133 132 149 165 234 240 5 240 250 265 256 235 231 243 256 257 261 257 247 251 255 254 252 250 249 251 253 251 245 242 240 242 243 242 242 242 243 245 244 247 250 251 254 252 249 247 245 244 245 246 248 249 250 250 248 246 246 248 251 252 253 253 253 253 254 255 253 248 244 243 242 241 239 239 241 241 238 234 232 232 236 240 243 245 243 242 245
191 189 200 216 227 235 236 232 202 137 84 184 188 229 250 253 309 283 255 264 249 237 239 245 253 256 259 259 257 260 262 263 260 256 254 254 252 252 250 245 239 238 240 243 245 246 247 249 250 252 254 256 258 256 254 253 251 250 249 249 249 249 249 248 246 245 246 246 249 253 254 255 256 256 256 256 253 249 244 242 241 240 237 236 237 238 237 235 233 232 235 237 239 241 242 244 246
178 190 203 199 356 308 207 165 86 68 272 225 182 239 268 275 281 250 225 229 223 222 231 235 243 251 249 248 256 259 256 256 258 255 253 252 253 255 254 253 245 235 233 236 239 243 246 247 249 251 252 254 256 256 255 254 254 254 253 252 252 252 251 251 250 249 248 248 249 252 255 257 259 259 259 258 255 251 246 243 241 239 236 235 235 236 237 237 236 236 238 238 238 241 243 245 245
164 189 184 127 42 328 238 230 171 187 248 237 183 229 251 252 262 208 196 216 223 219 224 225 232 241 240 238 249 257 256 258 259 249 243 249 258 260 254 254 251 236 229 232 237 243 247 246 247 248 249 251 253 254 253 253 253 253 253 252 250 249 250 252 254 253 250 249 249 252 255 257 258 260 261 260 257 252 247 243 240 238 236 235 236 237 237 238 237 236 238 242 245 245 246 246 244
200 190 159 148 220 218 198 226 218 199 231 249 211 221 236 233 232 181 186 207 224 230 227 224 230 236 236 235 244 255 260 261 254 240 240 252 260 260 253 249 248 235 227 230 237 243 246 246 246 246 247 249 250 253 254 255 256 256 255 253 250 250 250 251 254 254 251 249 249 251 255 257 258 259 260 260 258 254 248 242 238 236 235 235 235 237 238 238 237 235 234 238 242 244 246 247 245
271 220 177 193 248 215 198 211 226 220 223 245 230 207 228 225 211 209 208 207 217 225 222 226 236 237 233 233 236 246 256 257 249 241 246 255 256 255 252 244 240 234 228 229 234 239 243 245 246 247 249 250 251 254 256 257 257 256 255 254 252 251 251 252 253 254 253 253 252 253 255 257 256 256 256 257 256 252 246 241 237 235 234 234 235 237 240 241 240 239 237 238 241 243 245 248 247
181 196 190 193 199 221 246 217 222 258 230 237 242 231 238 196 179 207 222 220 209 199 200 215 223 220 218 229 233 240 250 247 242 244 250 255 253 251 247 236 231 232 229 228 232 236 241 244 246 247 248 249 250 252 254 255 255 255 254 253 253 251 251 252 253 253 254 255 255 256 256 256 255 254 253 252 250 247 244 241 238 235 234 234 236 238 240 243 242 237 238 241 243 242 244 249 249
187 194 193 192 190 185 210 209 205 227 241 242 259 264 262 145 153 198 217 224 204 189 198 205 182 156 190 244 263 260 251 243 242 248 251 250 242 234 227 221 221 223 221 221 223 226 231 234 238 242 243 246 249 250 254 256 258 260 261 261 261 259 257 257 256 256 257 256 257 257 257 257 256 255 252 248 245 243 242 241 238 235 233 233 237 240 240 243 240 236 239 241 238 240 246 250 248